Theta_e
316 318 318 319 318 318 316 314 315 318 319 319 320 323 324 322 321 318 316 318 312 313 319 316 317 320 318 315 308 304 304 303 301 301 300 299 298 298 297 297 296 295 294 293 293 292 292 293 293 294 295 297 300 301 303 303 304 304 306 307 308 310 312 313 313 314 314 314 313 313 311 308 306 307 308 307 306 306 306 306 307 307 308 309 310 311
313 317 320 318 316 316 315 312 311 314 315 315 316 317 319 319 319 315 314 315 312 313 319 316 316 319 317 314 306 303 305 304 301 301 300 299 298 298 298 297 296 296 294 293 292 292 292 292 292 292 293 295 296 297 299 300 301 303 304 305 305 307 309 309 309 309 310 309 309 309 307 306 305 305 305 304 303 304 303 304 304 304 303 304 305 305
315 318 319 316 315 315 315 313 311 312 313 313 315 314 317 318 318 319 315 314 313 313 320 319 317 318 316 309 303 302 303 301 299 300 299 298 298 298 298 297 296 296 295 293 292 291 291 291 291 291 292 292 293 294 296 298 301 302 303 303 304 305 306 306 307 306 306 305 306 306 305 304 303 302 302 302 301 302 302 302 302 302 302 302 302 302
321 323 318 313 315 315 315 316 314 314 313 315 316 316 319 318 319 325 320 316 315 312 317 318 315 317 314 307 304 302 301 300 299 299 298 298 298 297 296 296 296 296 296 294 293 291 291 291 291 291 291 291 292 292 294 296 298 300 301 302 303 303 304 304 305 304 304 304 304 304 303 303 302 301 301 302 301 301 301 301 301 301 301 301 301 301
323 323 317 314 315 315 316 317 316 316 317 319 319 317 320 319 319 324 320 317 317 315 314 314 317 324 321 315 310 304 301 301 300 299 299 298 297 296 296 296 296 295 294 294 293 291 290 290 290 290 290 290 291 291 292 294 296 297 299 301 302 302 303 303 303 303 303 304 303 303 303 303 302 301 301 300 299 299 299 299 299 299 299 300 300 300
320 318 316 318 317 315 316 318 319 319 319 323 324 319 319 320 321 321 316 316 321 321 316 312 321 334 330 321 312 306 305 303 301 301 300 298 298 297 297 297 296 295 294 293 292 291 290 289 290 290 290 290 290 291 291 293 294 296 297 299 300 300 301 301 302 302 302 302 302 302 301 299 297 296 295 294 294 295 295 295 295 296 296 297 298 298
319 315 315 319 319 317 317 320 321 319 319 324 323 319 317 316 318 319 317 318 323 323 315 310 318 330 332 326 314 306 307 304 302 302 300 299 298 298 298 297 296 296 294 293 291 290 289 289 289 289 289 289 290 290 291 293 294 295 296 297 298 298 298 299 299 299 300 299 299 298 297 295 293 291 290 291 291 292 292 292 292 292 292 293 293 294
318 316 315 317 319 320 319 322 320 317 322 326 320 319 320 318 318 320 318 319 322 321 318 318 317 320 327 323 311 306 308 305 303 303 300 299 299 298 298 297 296 296 295 294 292 290 289 289 289 288 289 289 289 290 291 293 294 295 295 296 296 296 296 296 297 297 297 297 296 296 295 293 291 290 289 289 290 290 290 290 289 289 289 289 289 289
315 317 319 317 318 319 320 324 321 316 323 324 316 316 320 319 321 322 321 321 318 315 322 326 317 316 326 322 309 307 310 309 306 304 301 300 299 299 298 297 296 295 294 292 292 290 288 288 289 288 289 289 289 290 290 291 292 293 294 294 295 295 294 294 294 295 295 295 294 294 293 291 289 289 288 288 288 288 288 288 287 287 287 287 287 287
314 314 318 320 320 322 321 320 316 317 321 316 311 316 318 317 320 322 323 323 317 315 325 327 317 317 327 325 314 309 313 315 310 304 302 301 300 300 299 297 295 295 294 292 290 289 289 288 288 288 288 289 289 289 290 291 292 292 293 293 293 293 292 292 293 293 292 292 292 292 291 290 288 288 287 287 287 287 287 287 286 286 286 286 286 286
313 309 312 317 319 321 319 313 309 314 316 311 314 323 321 318 320 321 323 321 316 322 326 322 317 316 321 327 323 315 315 316 311 305 302 301 301 300 300 298 296 295 295 293 290 288 289 289 288 288 288 288 288 289 290 291 292 292 292 292 292 291 291 291 291 291 291 290 290 289 289 288 287 287 287 287 286 286 286 286 286 287 287 287 287 287
313 311 312 315 315 315 316 312 308 309 311 313 321 326 322 322 320 319 323 320 319 328 325 315 313 314 318 327 325 317 311 308 308 306 303 302 301 300 300 299 298 296 295 294 291 289 288 289 288 288 289 288 288 289 290 291 291 291 291 291 290 289 289 289 289 289 289 288 288 287 287 287 286 287 286 286 286 286 287 287 287 287 287 287 287 287
316 317 315 312 311 313 320 318 311 310 312 317 323 324 324 325 321 322 325 321 322 324 315 312 314 314 318 322 320 318 311 304 304 304 302 301 301 300 300 299 298 296 295 295 293 290 288 288 288 288 288 288 288 289 290 290 290 290 290 290 290 288 288 288 288 288 287 287 287 286 286 286 286 286 286 286 287 287 287 287 287 287 287 287 287 287
320 321 315 312 313 314 318 320 317 317 316 317 321 324 325 325 325 327 325 318 320 318 310 310 313 315 319 317 315 314 308 301 300 301 301 300 299 299 299 299 298 296 295 295 294 290 288 288 288 288 288 288 288 289 289 289 289 289 289 289 288 287 287 287 287 286 286 286 286 286 286 286 286 287 287 287 287 287 287 287 287 287 287 287 287 287
323 325 318 316 317 315 315 317 321 322 316 315 319 320 322 326 328 327 325 323 324 320 313 309 313 321 323 314 307 305 302 298 299 298 299 300 299 298 298 298 298 297 296 295 294 290 288 288 288 287 288 288 288 288 288 288 288 288 288 287 287 286 286 286 286 286 286 285 286 286 286 286 287 287 287 287 287 287 287 287 287 287 287 287 287 287
318 324 320 315 312 313 314 316 318 320 317 314 314 316 319 323 326 322 318 320 320 319 317 313 317 322 318 307 301 301 300 298 298 297 298 300 299 298 298 298 298 297 296 295 294 291 288 289 289 288 288 287 288 288 288 288 287 287 287 286 286 286 285 285 285 285 286 286 286 286 286 287 287 287 287 287 287 287 287 287 287 287 287 287 287 287
318 323 318 312 311 311 312 314 315 317 319 314 312 319 319 315 322 322 314 310 312 318 318 316 319 318 312 308 302 300 301 299 297 298 298 299 298 298 298 298 297 297 296 295 293 290 288 289 288 288 287 287 287 287 287 287 287 287 286 286 286 285 285 285 285 285 286 286 286 286 287 287 287 287 287 287 287 287 287 287 287 287 287 287 287 287
322 326 318 312 314 310 306 311 314 312 315 317 317 320 315 311 318 322 318 316 316 320 320 316 318 318 316 315 307 301 304 303 299 299 298 298 298 298 298 297 297 296 295 294 292 288 288 289 289 288 287 287 287 287 287 287 287 286 286 286 286 286 285 285 285 285 286 286 286 287 287 287 287 287 287 287 287 287 288 288 288 288 288 288 288 288
319 323 319 311 314 312 307 313 317 311 310 316 318 315 314 317 320 319 319 322 320 321 323 318 315 316 317 317 314 310 310 306 301 299 299 298 298 298 298 297 296 295 295 294 293 289 288 289 289 288 287 287 287 287 287 287 286 286 286 286 286 286 286 286 286 286 286 286 287 287 287 287 287 287 287 287 287 287 288 288 288 288 288 288 288 288
316 320 321 312 311 313 311 314 320 316 310 311 312 310 313 317 320 320 319 320 321 321 323 320 315 318 318 316 320 320 311 304 302 300 299 298 297 297 298 297 296 296 295 294 293 290 288 289 289 288 287 287 287 286 286 286 286 286 286 286 286 286 286 286 286 286 287 287 287 287 287 287 287 287 287 287 287 287 287 286 287 287 287 287 287 287
314 317 322 315 309 312 316 317 318 318 314 313 314 314 315 314 315 319 317 316 321 323 325 322 317 320 320 314 317 318 309 302 301 300 299 298 297 297 297 297 297 296 294 293 292 289 288 289 290 288 287 287 287 287 287 286 286 286 286 286 286 286 286 287 287 287 287 287 287 287 287 287 287 286 286 286 286 286 286 286 286 286 286 287 287 287
315 316 322 320 314 316 321 316 311 314 315 314 316 316 316 316 316 318 316 316 318 319 323 323 317 319 319 309 309 312 307 301 300 300 299 298 298 298 297 297 297 296 295 293 291 289 287 289 290 289 288 288 289 289 288 287 287 286 286 286 286 287 287 287 287 287 287 287 287 286 286 286 286 286 285 286 286 286 286 286 286 286 286 286 286 286
317 318 321 321 318 319 317 309 306 310 312 313 315 315 315 316 318 320 318 317 317 315 315 317 318 318 313 305 306 307 304 302 300 300 299 299 299 298 298 298 297 296 295 293 290 288 288 289 290 290 290 290 290 290 289 288 287 287 287 287 287 287 286 286 286 286 286 286 286 286 286 286 286 285 285 285 286 286 286 285 285 285 285 285 284 284
316 318 319 319 320 319 314 309 307 308 311 314 316 314 314 316 317 318 317 317 319 318 316 316 318 317 310 304 305 303 301 302 300 300 300 300 299 299 299 299 298 296 295 294 291 288 288 290 290 290 290 290 291 290 289 288 287 287 287 287 287 287 287 287 286 286 286 286 286 286 286 286 286 286 285 285 285 285 285 285 284 284 283 283 282 282
316 319 320 319 321 321 317 314 312 311 313 316 317 314 314 317 317 315 314 315 317 317 317 316 317 316 311 306 303 302 301 302 301 299 300 300 300 300 299 299 298 297 296 296 293 290 289 289 289 290 290 291 291 291 290 288 288 287 287 287 287 287 287 287 287 287 287 286 286 286 286 286 286 285 285 285 285 285 284 284 284 283 283 282 282 281
316 320 320 318 320 321 320 319 318 317 315 314 315 314 313 315 315 315 316 316 316 315 315 315 316 315 311 306 305 303 302 303 303 301 300 301 302 302 300 299 299 299 298 296 294 292 290 289 289 289 290 291 291 291 290 289 288 288 288 288 288 287 288 288 287 287 287 287 286 286 286 286 285 285 285 285 284 284 284 283 283 282 282 281 281 280
319 320 318 318 319 319 319 318 316 318 318 315 316 316 314 313 312 315 317 317 316 315 315 315 315 314 313 309 306 306 306 306 305 303 301 302 303 302 301 300 299 299 297 295 293 292 291 290 288 288 290 290 291 291 290 290 289 288 288 288 288 288 288 288 288 287 287 287 287 286 286 285 285 285 285 284 284 283 283 282 281 281 280 280 280 279
319 318 317 319 318 317 316 315 314 316 317 316 316 316 315 312 311 313 314 315 316 316 315 315 313 314 315 313 309 308 308 307 306 305 303 302 301 300 300 300 301 300 296 293 292 292 293 291 288 287 289 290 290 291 290 290 289 289 288 288 288 288 288 288 288 288 288 287 287 286 286 285 285 285 284 284 283 282 281 281 280 280 279 279 278 278
318 317 317 317 317 316 314 312 314 315 314 314 315 316 315 312 311 312 312 312 314 315 315 314 313 313 313 312 311 309 306 307 306 304 302 301 300 299 299 301 303 302 298 294 293 292 292 291 288 287 289 290 290 290 290 289 289 289 288 288 288 288 288 288 288 288 287 287 286 286 285 285 284 284 283 282 281 281 280 279 279 279 278 278 277 277
315 316 316 315 316 316 313 310 311 312 312 312 313 314 313 311 309 310 310 310 310 312 311 309 310 311 310 310 312 308 304 305 305 302 302 301 300 301 301 303 304 303 300 298 295 292 290 289 287 288 289 289 289 290 289 289 289 288 288 288 287 287 287 287 287 287 286 286 285 285 284 284 283 282 282 281 280 280 279 279 278 278 278 277 277 277
312 314 314 312 314 315 310 308 308 308 309 311 312 312 310 308 307 307 307 307 307 308 308 307 308 309 307 308 310 307 304 304 305 304 303 301 301 302 303 304 304 303 301 298 294 291 289 287 286 287 288 289 289 289 289 289 288 288 288 287 287 287 287 286 286 285 285 285 284 284 283 283 283 282 281 281 280 279 279 278 278 277 277 277 277 276
311 311 310 310 315 315 309 306 306 305 305 307 310 311 308 307 308 306 305 306 307 308 309 308 309 309 306 305 305 304 304 304 304 303 301 300 300 301 302 302 301 300 299 295 291 291 291 288 285 286 288 289 290 290 289 289 288 287 287 287 287 286 285 285 284 284 284 284 283 283 283 283 283 282 281 280 279 278 278 277 277 277 276 276 276 276
310 310 311 311 315 314 306 303 304 304 307 310 310 310 308 307 307 305 303 304 305 307 309 309 308 307 305 304 303 303 304 302 301 301 301 300 300 298 299 299 298 298 297 294 292 291 291 288 286 287 289 290 290 290 289 289 288 287 287 286 286 285 284 284 283 283 283 283 283 283 283 283 282 280 279 278 278 277 277 277 276 276 276 276 275 275
308 311 311 311 314 311 301 299 303 307 312 312 306 306 308 307 306 306 304 304 304 304 306 306 305 303 303 303 303 302 302 300 300 299 298 298 299 298 298 296 295 295 293 291 291 290 288 287 287 288 289 290 290 289 289 288 288 287 286 285 285 284 283 283 283 282 282 282 282 283 283 282 281 279 278 278 277 277 276 276 276 275 275 275 275 274
308 309 308 308 309 305 299 300 307 311 311 304 297 298 301 302 304 305 304 302 301 301 302 303 302 301 301 301 300 298 297 297 298 297 296 296 296 297 297 296 294 293 292 292 291 288 285 286 287 288 289 289 289 289 288 287 287 286 285 284 284 283 283 283 282 282 282 282 283 283 282 281 279 278 277 277 276 276 275 275 275 275 274 274 273 273
307 307 306 305 304 301 300 305 310 309 304 299 294 294 295 297 298 299 300 299 297 298 300 300 300 300 300 299 297 296 295 294 294 294 294 294 293 294 297 298 295 292 291 291 290 287 286 288 289 289 289 289 288 288 287 286 286 285 284 284 283 283 282 282 282 282 282 282 283 282 280 279 278 277 276 276 276 275 274 274 274 274 273 273 272 272
304 306 306 306 305 303 303 305 307 306 304 303 300 296 295 297 298 299 300 300 297 295 296 297 299 299 298 297 295 294 293 292 294 295 294 292 292 292 293 294 293 290 288 288 288 288 289 290 290 289 289 288 288 287 286 286 285 285 284 283 283 282 282 282 282 282 282 282 281 280 279 277 277 276 275 275 275 274 274 273 273 273 272 272 271 271
301 304 307 308 307 305 304 305 305 305 307 308 303 297 294 297 298 297 298 300 300 298 295 296 299 298 296 295 294 292 292 294 297 297 295 293 291 290 289 288 287 287 287 286 287 288 288 288 288 288 288 288 287 286 285 285 285 284 283 283 282 282 281 281 281 281 281 280 280 278 277 276 275 275 274 274 274 273 273 273 273 272 271 271 270 270
300 301 303 306 306 304 304 306 306 306 308 308 302 295 293 294 297 297 297 299 301 300 297 296 298 297 296 295 293 293 293 296 298 296 295 294 291 289 290 288 285 285 287 287 287 288 287 287 287 287 286 286 286 285 285 284 284 283 283 282 281 281 280 280 280 280 280 279 278 277 276 275 274 274 274 273 273 272 272 272 272 271 271 270 270 269
300 302 302 303 305 304 304 305 305 305 305 302 297 293 291 293 297 298 298 300 301 296 293 295 298 299 297 294 292 293 296 298 298 297 296 294 289 286 288 288 286 285 287 288 288 288 287 286 286 285 286 286 286 285 284 283 283 282 282 281 280 280 280 280 280 279 279 278 277 275 275 274 274 273 273 273 272 272 272 272 271 271 270 270 269 268
298 300 301 301 303 304 305 305 304 304 303 297 294 292 292 294 296 297 299 302 300 294 290 293 299 299 294 292 292 293 296 296 295 294 293 292 291 288 286 286 286 286 287 288 288 287 286 286 286 286 287 286 286 284 283 282 282 281 280 280 280 280 280 279 279 278 278 277 275 274 274 273 273 272 272 272 272 271 271 271 271 270 270 269 269 268
298 299 299 301 302 302 303 304 303 304 302 296 292 291 292 295 298 300 300 298 298 297 292 292 298 296 291 291 292 293 294 293 291 292 291 291 294 292 287 284 285 285 286 286 287 286 286 285 285 285 285 284 284 283 282 281 281 280 279 279 279 279 279 278 278 277 276 275 274 273 273 272 272 271 271 271 271 270 270 271 270 270 269 269 268 266
299 300 299 300 301 301 301 301 302 302 298 293 292 292 293 297 301 302 299 293 293 298 295 292 294 293 290 292 291 290 292 291 289 291 291 290 291 290 285 283 284 285 285 285 286 286 286 285 284 283 283 282 282 282 281 280 280 279 279 279 279 278 277 277 277 276 275 274 273 272 271 271 271 271 271 270 270 270 270 270 270 269 269 268 267 265
298 301 300 300 300 300 300 300 301 301 296 292 294 296 296 297 299 300 298 294 292 293 292 293 294 290 289 292 292 289 290 290 290 292 291 290 290 288 284 283 284 284 285 285 286 286 285 284 283 282 281 281 281 280 280 280 279 278 278 279 278 277 276 276 275 274 273 272 271 271 270 270 270 270 270 270 270 269 270 270 269 268 268 267 266 264
298 298 298 300 299 297 298 299 297 296 293 292 295 299 297 296 297 298 298 298 295 292 290 294 297 292 287 290 291 291 291 292 292 291 290 290 290 288 285 284 284 284 285 285 284 284 283 283 282 280 279 279 279 279 279 279 279 278 278 278 277 276 275 275 274 273 272 271 270 270 269 269 269 269 269 269 269 269 269 269 268 267 267 267 265 263
295 292 292 296 297 294 294 295 294 292 292 291 294 297 296 295 295 296 296 297 297 295 291 292 297 295 289 288 290 292 292 292 292 290 289 289 289 286 283 283 283 284 284 284 283 283 282 281 280 279 278 277 277 278 278 278 278 278 277 277 276 275 274 273 273 272 271 270 270 269 269 269 269 269 269 269 269 269 269 268 267 265 266 266 264 263
293 290 290 293 295 295 294 293 292 292 293 292 292 294 294 294 293 293 294 294 295 295 293 292 293 292 289 288 291 293 293 292 291 291 289 288 289 287 283 282 283 284 284 284 284 283 281 280 278 278 277 277 277 277 276 276 277 277 276 275 275 274 273 273 272 272 271 270 269 269 268 268 268 268 269 269 268 268 268 268 266 264 265 265 264 262
293 292 292 293 293 294 294 291 289 291 291 291 292 292 293 294 293 291 292 292 291 292 292 289 288 289 290 290 291 293 293 292 291 291 290 289 288 286 282 281 283 283 283 284 283 282 280 279 278 277 277 277 277 276 275 276 276 276 275 274 274 273 273 272 272 271 270 269 269 268 268 268 268 268 268 268 268 268 268 268 266 264 265 265 264 262
293 292 293 293 292 292 292 290 289 290 290 290 291 291 291 292 292 291 291 291 289 290 290 288 286 286 289 291 291 291 292 292 291 290 290 290 288 285 283 282 284 284 283 283 283 282 281 280 279 278 277 276 275 275 275 275 275 275 274 274 273 273 272 271 270 270 269 268 268 268 268 267 267 267 267 267 267 267 267 267 266 264 264 266 265 263
291 292 292 292 292 292 292 291 290 292 292 292 292 291 290 290 290 291 291 290 290 290 290 290 288 285 284 285 287 289 292 292 289 287 288 288 286 284 283 283 283 283 283 283 282 281 280 279 279 278 276 275 274 275 275 275 274 274 273 273 272 272 271 270 269 269 268 268 268 267 267 267 267 267 266 266 266 266 267 267 267 264 263 264 265 264
291 292 292 291 292 294 294 293 291 291 293 293 293 292 291 289 289 290 291 291 291 290 289 289 290 289 287 285 283 284 290 290 286 285 287 287 284 283 284 284 283 283 283 281 280 278 278 277 277 276 275 275 275 275 275 274 274 273 272 272 271 271 270 269 269 268 268 267 267 267 266 266 266 266 266 266 265 264 264 266 267 267 266 264 264 265
Wind_Speed
3 3 2 5 6 7 9 10 7 3 5 5 3 3 4 4 5 4 4 5 0 0 5 4 4 7 7 5 7 5 5 8 6 6 6 4 5 5 5 5 5 5 5 10 15 18 21 22 23 23 24 26 28 29 30 31 31 31 30 30 30 29 26 25 25 24 24 25 26 28 29 30 31 29 28 29 29 28 27 26 26 25 25 22 22 22
3 4 7 9 8 7 7 7 4 1 3 3 2 2 3 4 6 5 3 5 2 2 4 1 2 8 5 4 6 5 6 7 4 5 5 5 5 4 5 5 4 3 5 10 14 17 20 21 21 22 24 27 27 28 30 31 31 31 31 31 30 28 27 28 27 26 26 26 26 28 29 29 30 29 29 30 30 27 26 26 26 26 26 25 24 23
2 4 11 9 5 5 2 4 5 4 3 2 2 1 4 3 4 6 3 4 3 2 4 4 4 6 2 5 5 6 6 5 4 4 4 4 5 4 4 4 4 4 5 7 10 14 19 20 20 22 25 26 26 27 29 30 30 31 31 31 29 28 27 27 27 27 28 27 26 27 28 29 30 31 30 29 28 26 26 26 25 25 25 25 25 25
2 6 10 6 6 6 1 4 6 4 2 3 3 3 4 2 0 3 3 4 3 1 2 2 4 5 1 4 5 6 4 4 5 5 5 4 5 4 3 3 4 5 5 5 6 11 15 18 20 22 23 24 26 28 29 30 31 31 30 30 29 28 27 26 25 26 26 25 25 25 26 27 28 29 27 27 27 26 26 26 25 25 24 23 23 24
6 6 3 4 6 7 4 3 6 5 2 3 5 5 5 3 5 6 3 4 3 3 1 2 4 5 1 2 2 2 3 4 4 5 6 5 4 3 3 3 4 4 3 4 5 7 12 15 17 20 21 23 26 28 29 30 30 31 30 29 29 29 28 27 25 24 23 23 23 23 23 24 25 27 27 28 28 28 28 28 27 26 24 23 22 22
8 5 3 4 3 5 6 4 5 7 3 4 5 9 9 7 7 5 2 4 3 3 2 2 2 5 4 1 3 2 2 3 3 4 5 4 4 3 3 3 3 3 3 3 4 6 9 12 16 19 20 22 25 26 27 29 30 31 31 30 30 29 29 27 27 25 24 25 25 26 27 27 28 30 30 29 30 30 30 30 29 28 27 26 25 24
4 2 2 4 4 5 5 4 5 7 5 2 4 8 9 6 5 4 2 3 1 2 2 2 1 4 6 4 4 4 3 3 2 3 2 1 2 2 2 2 2 2 3 3 5 6 9 12 15 17 18 20 22 23 25 28 30 31 32 32 32 31 30 29 28 27 27 29 31 32 33 33 33 32 30 30 31 32 32 32 32 32 32 32 31 30
3 1 3 4 5 5 5 4 6 8 7 3 4 5 6 6 5 5 5 4 2 3 3 3 1 2 4 4 3 6 6 3 1 1 1 1 1 1 0 1 1 1 2 2 3 5 8 11 13 13 14 17 19 21 25 28 30 31 31 32 32 32 31 30 30 29 30 31 33 34 36 36 35 33 31 31 32 32 31 32 33 34 34 34 34 34
2 3 3 6 5 5 6 5 8 10 5 4 4 6 6 6 5 4 5 2 1 1 4 4 0 1 5 4 1 3 4 3 5 6 5 4 4 3 2 2 1 1 1 2 3 4 7 10 11 11 13 16 18 21 25 27 28 29 29 30 30 31 31 30 30 30 31 31 32 33 34 35 34 32 32 31 31 31 31 33 33 33 33 33 33 34
0 3 5 7 5 5 5 3 7 10 4 4 6 7 6 6 5 4 5 3 2 1 4 6 3 2 5 5 1 2 4 5 7 6 5 5 5 4 4 3 1 0 1 2 3 4 6 8 9 11 13 16 19 21 23 25 26 27 27 28 29 30 29 29 29 29 30 30 31 31 32 33 32 31 30 30 31 31 31 32 32 32 33 32 32 32
1 1 1 4 3 5 4 2 2 5 5 6 6 6 6 5 5 3 2 4 3 2 6 6 4 2 3 5 3 4 3 4 6 5 5 5 5 5 5 4 3 1 0 1 3 4 5 7 9 11 14 16 18 20 23 24 24 25 25 26 28 28 27 27 27 28 29 29 29 30 30 31 31 29 30 31 31 31 31 32 31 31 31 31 31 31
3 1 1 2 2 4 5 4 3 2 3 6 4 4 4 2 4 4 4 3 1 5 5 3 2 2 3 5 4 4 3 3 5 6 9 9 7 7 5 5 4 3 1 0 1 2 5 7 9 11 14 15 17 20 22 22 22 23 23 24 26 26 25 25 25 26 28 28 29 29 29 30 29 29 30 31 30 29 30 30 29 29 29 30 30 30
2 4 3 2 1 4 5 4 4 5 4 4 4 5 4 2 2 2 2 0 3 5 3 1 1 3 5 6 5 4 4 3 4 5 8 10 9 8 6 5 4 2 2 1 1 1 3 5 7 10 12 14 17 19 20 21 21 21 22 22 24 25 24 24 24 25 27 27 28 27 28 28 28 28 28 28 28 27 27 27 28 28 28 29 29 29
3 4 1 1 2 3 7 5 2 1 1 4 5 5 4 2 1 2 3 1 3 4 2 2 1 1 4 4 4 4 4 4 4 5 6 8 9 8 7 5 4 3 3 3 3 3 3 5 6 9 12 13 16 18 19 20 20 20 21 21 23 24 23 23 24 25 26 26 26 26 26 26 26 27 27 26 26 25 25 25 26 27 27 27 28 28
2 4 3 5 2 4 8 6 5 6 4 3 3 4 4 4 4 4 4 3 4 2 2 2 1 3 4 2 3 4 4 3 3 5 6 6 6 6 5 5 4 4 4 3 3 4 5 6 7 9 11 13 15 17 18 19 19 19 20 20 22 23 22 22 23 23 25 25 24 24 24 24 24 25 25 24 24 23 23 23 24 24 25 25 26 26
3 5 5 3 2 4 6 3 4 6 2 1 2 4 2 4 4 1 2 5 3 2 3 2 3 4 4 1 2 2 3 3 2 2 6 7 5 5 5 5 5 5 5 4 4 5 6 7 8 9 11 13 15 16 17 17 17 18 19 20 21 21 21 21 21 22 23 22 22 22 22 22 22 22 22 22 21 21 21 21 22 23 24 25 26 27
2 4 5 2 2 2 2 2 3 3 3 2 2 3 4 3 6 3 2 1 3 1 4 2 3 3 0 1 2 1 3 3 1 2 7 8 6 6 6 6 6 6 6 5 4 5 8 9 9 10 12 13 15 16 16 16 16 16 17 18 19 19 19 19 19 20 20 20 20 20 20 20 20 20 20 20 19 19 19 20 22 23 24 25 27 28
4 3 4 1 1 1 1 2 4 3 3 5 3 5 3 2 4 3 1 2 3 3 4 1 4 4 1 2 2 1 2 4 4 4 5 6 6 6 7 7 7 7 6 5 5 7 9 11 11 12 12 13 14 15 15 15 15 15 15 16 17 17 17 17 17 17 17 17 18 18 18 18 18 17 17 17 16 16 16 18 19 20 22 24 25 26
4 1 5 0 2 1 3 3 3 4 3 5 4 3 3 3 2 2 2 1 1 3 4 2 2 3 4 4 2 5 8 8 7 6 7 8 9 8 9 9 8 7 5 5 5 6 9 12 13 13 13 13 14 14 14 14 14 14 14 13 14 14 15 14 14 14 14 14 14 14 14 14 14 13 13 12 12 13 14 16 17 18 19 21 23 24
3 2 3 2 1 1 2 2 3 2 1 3 1 1 2 2 3 2 2 2 2 3 3 4 2 3 5 6 8 11 12 11 10 8 10 11 11 10 9 9 8 7 7 6 6 6 10 14 14 14 15 14 14 13 13 13 12 12 12 12 12 13 13 12 12 11 11 11 11 10 10 9 9 9 9 9 9 11 13 14 16 17 19 20 22 23
3 3 3 2 2 1 2 3 6 7 4 3 3 3 1 1 2 1 1 2 3 3 2 3 5 5 4 3 8 10 10 13 14 13 12 11 11 11 9 9 9 8 8 7 6 7 11 14 15 15 15 14 14 13 12 12 11 11 11 11 12 12 11 11 10 9 8 8 7 6 6 6 5 6 7 7 9 11 12 14 15 17 18 19 21 23
3 3 3 2 1 3 5 4 4 5 5 5 5 6 6 4 3 2 3 1 2 2 3 3 6 7 3 2 4 5 6 11 13 12 11 11 13 13 10 9 10 9 8 7 7 8 12 15 15 16 15 15 14 13 12 12 11 11 11 11 12 11 11 10 8 8 7 6 5 4 4 4 4 5 6 7 9 10 12 14 15 16 17 18 20 22
2 3 3 3 3 5 5 3 2 3 2 3 3 4 5 4 5 5 5 3 2 1 1 2 3 6 2 1 3 3 5 8 8 10 11 12 13 12 10 9 9 8 6 6 7 10 13 15 16 17 17 16 15 13 12 11 11 11 11 12 12 11 10 9 8 7 5 4 3 3 3 3 3 3 5 7 9 11 12 14 15 16 17 19 20 22
2 2 2 2 3 3 4 2 2 2 3 2 3 2 4 3 2 4 4 2 2 4 2 2 4 5 2 2 2 2 3 5 7 9 11 11 10 9 9 9 8 6 5 5 7 10 13 16 16 17 17 16 15 13 12 11 11 12 12 11 10 9 8 7 6 5 4 3 2 1 1 2 4 4 7 9 10 12 14 15 16 17 19 21 22 24
3 2 3 1 2 3 3 1 1 2 0 3 3 2 2 2 4 2 1 2 2 5 6 4 7 5 2 3 3 3 4 5 6 7 7 7 7 7 8 7 6 5 5 6 7 8 11 14 15 16 17 17 16 14 13 12 13 13 12 11 9 8 7 6 5 4 3 2 1 2 3 5 6 7 9 10 12 14 15 16 18 19 21 22 24 25
4 3 4 5 6 6 5 4 3 2 2 2 2 3 4 5 7 4 2 3 6 4 7 6 9 4 2 2 3 3 4 5 6 6 5 5 6 7 7 6 5 5 6 8 7 8 9 11 14 16 17 18 17 16 15 14 14 13 12 11 10 8 7 6 5 5 4 4 4 5 6 6 8 8 10 11 13 15 16 17 19 20 22 23 25 26
2 1 4 7 9 9 6 4 3 4 4 4 5 6 6 7 9 6 3 5 6 3 4 8 6 2 3 2 4 4 4 6 7 6 6 7 7 7 6 5 5 5 6 6 7 7 7 9 13 16 17 19 18 17 16 15 14 13 12 11 10 8 7 6 5 5 5 5 6 6 7 7 8 9 11 12 14 16 17 19 20 21 23 24 25 26
3 2 6 8 9 7 3 2 3 4 5 7 8 8 8 7 8 9 9 7 5 4 8 8 5 4 6 5 7 7 6 7 8 8 8 8 7 6 4 4 5 5 5 5 6 7 8 9 11 15 18 19 18 17 16 15 14 13 12 11 10 8 7 6 5 5 5 5 5 5 6 7 8 10 11 13 15 17 18 19 21 22 22 23 24 24
4 4 6 5 7 7 0 1 3 4 3 4 7 11 13 11 13 15 14 9 9 9 11 5 8 8 8 6 9 10 10 10 10 8 6 4 4 5 5 5 6 6 6 6 7 9 9 8 10 15 18 18 17 17 16 15 14 13 12 11 10 8 7 6 5 5 4 4 4 4 6 7 9 11 12 14 16 17 19 20 21 22 23 23 24 24
3 3 5 4 7 10 3 0 3 5 4 3 6 12 13 13 14 15 14 10 9 8 6 2 6 9 7 6 8 8 7 7 5 2 2 3 4 5 5 6 7 6 5 7 8 8 8 9 12 16 17 18 18 18 17 16 15 14 13 12 11 10 9 7 6 5 4 4 4 4 6 8 10 12 14 16 17 18 20 21 22 22 23 24 24 25
2 2 2 3 5 7 3 2 2 4 5 5 9 13 9 7 9 11 9 5 2 4 6 2 6 9 4 6 6 3 2 3 2 4 5 6 5 5 5 6 6 6 6 7 8 7 7 9 12 14 16 19 20 19 19 18 16 15 15 14 13 12 10 8 7 6 4 3 4 5 7 9 12 14 16 17 18 19 20 21 22 23 23 24 24 25
3 2 2 3 5 6 3 4 3 2 1 4 12 17 10 7 7 8 6 6 6 7 8 6 8 10 4 5 4 3 4 6 8 8 6 5 5 6 7 7 7 7 8 8 8 7 7 9 12 15 18 20 20 20 20 19 18 18 17 16 14 12 10 9 7 5 4 4 5 7 9 12 14 16 17 18 19 20 21 22 22 23 24 24 25 25
4 3 2 3 5 4 1 4 4 4 1 5 12 15 13 11 9 3 3 7 9 8 6 8 9 7 3 5 4 5 7 8 9 7 6 6 6 7 8 8 8 8 9 8 8 8 9 11 15 18 19 19 19 20 20 21 20 20 18 17 15 12 10 8 6 5 5 5 6 8 11 14 15 16 18 19 20 20 21 22 23 23 24 25 25 25
4 6 4 4 3 2 1 3 4 3 6 6 4 5 10 14 14 9 7 10 9 7 6 7 5 1 4 6 7 9 8 7 7 7 6 6 6 6 8 8 8 8 8 8 8 8 11 13 15 17 17 17 18 18 19 20 21 20 18 16 14 11 9 7 5 5 5 6 8 10 13 15 16 17 18 19 20 21 21 22 22 23 23 24 25 25
5 6 4 2 2 1 2 3 4 6 7 3 4 3 1 4 8 10 10 9 7 8 8 8 7 4 5 8 8 6 4 5 5 6 6 6 7 7 7 8 9 8 7 7 7 9 12 14 14 16 17 18 18 18 19 20 20 19 18 16 13 10 8 7 6 6 6 8 10 12 14 16 17 18 19 19 20 21 21 22 22 22 23 24 25 25
5 5 2 1 2 2 2 5 6 4 2 2 4 4 3 4 4 3 5 7 7 9 10 10 9 8 10 10 4 1 1 2 3 5 6 7 7 7 8 9 9 9 9 10 12 14 17 18 19 20 21 20 19 20 21 21 20 19 17 15 12 10 8 7 7 7 8 10 11 13 15 16 17 18 19 19 20 21 21 21 22 22 23 24 24 25
4 4 2 2 3 2 3 5 3 4 3 2 1 2 2 4 5 4 3 7 7 9 9 8 8 12 12 6 1 3 2 2 4 5 6 7 8 8 8 8 9 10 13 15 16 18 20 21 21 22 22 21 22 22 22 21 20 18 17 14 13 11 9 9 8 9 10 11 12 14 15 16 17 18 18 19 20 21 21 21 22 22 23 24 25 26
1 3 4 5 4 3 3 3 2 3 6 5 3 3 2 4 5 6 3 5 6 6 9 10 11 13 9 3 4 3 3 3 4 6 5 6 7 7 7 8 10 13 14 15 15 15 16 18 20 21 22 23 23 23 22 21 20 18 17 15 14 12 11 10 10 10 10 11 13 14 15 16 17 17 18 19 19 20 21 21 22 22 22 23 25 26
2 1 1 3 2 3 3 3 3 4 5 3 3 3 0 3 6 7 3 5 6 6 9 10 10 10 7 5 5 5 5 2 6 7 5 7 7 7 7 8 10 13 14 13 13 14 15 18 19 20 21 23 24 24 22 21 20 19 18 16 14 13 12 11 11 11 11 12 13 14 15 16 16 17 18 18 19 19 20 21 21 22 22 23 24 26
1 1 0 2 2 3 4 3 3 4 4 2 4 3 2 3 7 8 2 7 6 6 7 9 9 9 6 7 6 6 5 6 6 6 4 6 6 8 10 10 11 14 16 15 14 14 15 18 20 21 23 25 26 25 24 22 21 20 18 16 15 14 12 11 11 12 12 14 14 15 15 15 16 16 17 18 19 19 19 20 21 22 23 23 23 24
0 0 0 2 3 5 6 4 2 3 4 4 5 6 5 3 6 4 6 7 4 6 6 7 9 8 6 8 7 5 7 8 5 1 2 5 4 6 11 14 13 13 15 16 16 15 17 20 22 24 26 28 27 26 25 24 22 20 18 16 15 14 12 12 12 13 14 14 14 15 15 15 15 16 16 17 18 19 19 19 21 22 22 23 24 24
1 0 1 2 2 3 4 2 3 5 3 6 5 3 4 4 1 4 6 3 5 8 7 7 8 7 7 9 8 7 8 7 3 1 2 4 4 4 7 10 10 9 11 12 14 16 19 21 23 24 24 25 27 27 26 25 23 20 18 17 16 14 13 13 14 14 14 15 14 14 14 14 15 15 16 17 17 19 20 19 20 21 21 22 23 24
4 3 2 3 3 1 1 3 4 5 2 10 9 2 1 4 5 4 2 1 4 7 7 7 7 6 8 8 8 8 7 5 3 4 4 4 4 5 5 7 10 11 12 13 16 19 21 22 24 25 24 24 26 27 26 25 22 20 19 18 16 14 14 14 14 14 14 14 14 14 14 14 14 14 15 16 17 18 20 19 19 20 20 20 22 24
3 4 3 4 3 4 4 6 5 2 4 10 10 5 6 7 5 5 5 4 4 4 6 7 7 7 9 9 8 8 6 5 5 6 5 5 5 6 6 8 11 13 14 17 20 21 23 24 23 23 23 24 26 27 26 25 23 21 20 18 16 15 14 14 14 14 14 14 13 14 14 14 14 14 15 16 16 18 19 19 19 20 19 19 21 23
5 5 5 3 3 4 5 6 4 1 4 8 6 5 8 8 5 6 7 5 4 5 5 5 6 8 9 8 7 6 6 6 7 6 6 6 7 7 8 10 13 15 17 18 18 19 23 24 22 22 23 24 26 27 27 25 23 22 20 18 16 15 14 14 14 14 14 13 13 14 14 15 14 14 15 15 16 17 18 18 19 20 19 19 20 22
4 2 3 2 2 4 3 3 2 1 3 7 7 6 6 5 4 5 6 5 5 6 6 6 7 8 9 8 7 6 6 7 7 7 7 6 7 8 9 11 14 17 17 17 17 19 21 21 20 21 23 24 26 28 27 26 24 22 19 17 16 15 14 14 14 14 14 13 14 14 15 16 15 14 14 15 15 16 17 17 18 19 19 19 20 21
3 3 3 2 2 3 3 3 4 3 4 8 9 8 5 5 5 5 5 5 5 6 7 7 6 6 8 8 8 8 8 7 7 7 7 6 7 8 8 11 15 17 18 19 20 20 20 20 22 24 25 27 29 30 28 26 23 20 18 17 16 15 14 14 15 15 14 14 14 14 15 16 16 15 15 15 15 16 16 16 17 18 19 19 20 20
2 3 4 4 4 3 4 4 3 2 3 5 7 7 6 7 7 6 6 6 5 5 6 6 4 5 6 7 8 8 7 7 8 7 7 6 7 7 8 12 16 18 18 19 19 19 21 24 26 27 29 30 31 31 29 26 23 21 19 17 16 15 15 15 15 15 15 14 14 15 15 16 16 15 15 15 15 15 16 16 16 18 18 18 18 20
2 3 3 4 4 2 2 3 1 3 5 6 7 8 8 8 7 6 6 6 4 4 5 5 5 6 7 7 8 7 7 8 7 7 8 8 7 7 11 15 18 18 18 18 19 21 24 27 28 30 31 30 30 30 28 26 23 22 20 17 16 16 16 16 15 15 15 15 15 15 15 15 15 15 16 16 16 16 15 15 16 17 18 18 17 18
3 4 3 3 3 4 4 5 5 2 4 7 9 11 12 9 6 6 6 5 5 7 7 7 7 6 6 7 7 7 7 9 8 8 8 8 8 11 14 16 17 17 18 18 19 22 25 27 28 29 28 26 26 28 28 26 23 21 19 17 17 17 16 16 15 16 16 15 15 15 15 15 15 15 15 16 17 17 17 15 14 15 17 17 15 14
5 7 6 4 4 6 6 7 7 6 5 6 7 9 10 7 6 7 8 8 9 9 7 8 8 8 7 9 10 11 9 9 9 9 8 9 13 16 17 17 16 16 18 19 20 22 25 26 26 27 27 27 27 28 28 26 23 20 18 17 17 17 16 16 16 17 17 16 15 15 15 15 15 15 15 15 16 17 18 18 15 13 13 13 12 12
Wind_Direction
114 123 188 218 206 197 204 204 205 188 141 145 148 151 189 222 265 259 257 286 322 195 270 227 229 265 276 325 9 5 47 70 69 77 73 61 60 47 49 46 35 44 30 22 28 34 40 46 50 52 57 62 65 65 66 67 66 66 68 70 70 70 71 74 75 76 78 79 79 79 77 74 71 70 69 67 64 61 59 58 56 54 52 50 48 47
92 155 225 233 206 193 205 205 202 162 120 117 150 208 253 224 252 262 255 303 357 167 265 329 287 275 285 9 12 18 57 54 39 75 74 63 65 49 50 47 34 42 29 27 30 33 40 45 47 50 55 59 60 61 65 66 66 69 70 72 73 75 75 76 77 78 78 79 81 81 80 78 73 70 67 66 64 62 59 57 55 54 52 51 50 48
71 210 240 238 173 130 103 147 173 198 194 191 148 189 269 238 269 288 289 334 18 170 269 351 325 281 327 48 31 38 62 57 37 64 69 69 70 54 49 41 38 46 30 25 24 27 36 41 44 49 53 56 58 60 65 68 70 71 71 73 75 78 80 82 83 84 84 85 85 85 84 82 77 72 70 68 65 62 59 56 53 51 49 48 48 47
191 243 246 219 142 146 121 106 130 141 191 204 164 172 249 236 276 285 294 336 16 114 265 357 326 289 120 82 50 49 76 83 62 64 62 63 70 66 63 44 44 48 33 24 20 25 34 38 42 48 51 55 59 61 64 67 69 71 72 74 76 79 81 85 87 88 89 90 90 89 87 85 82 77 73 69 64 61 59 56 54 51 48 46 45 44
228 243 222 114 129 169 177 126 136 148 221 238 200 196 227 220 212 229 278 332 358 16 18 66 338 305 249 129 86 70 84 74 49 56 56 41 45 58 64 47 38 42 32 27 22 21 32 38 43 50 54 58 61 62 64 67 70 72 75 76 78 79 80 83 86 90 94 96 95 94 90 86 80 71 65 62 59 58 59 57 55 53 51 50 48 47
252 241 133 102 107 150 163 184 181 170 192 283 231 207 216 219 221 233 332 16 14 345 338 48 348 297 312 318 174 169 72 57 30 42 54 31 22 38 52 39 21 27 30 32 32 28 35 42 49 54 58 62 64 66 69 73 76 77 79 80 81 81 80 81 83 85 89 89 86 84 81 76 72 65 59 59 61 62 62 61 60 58 55 53 52 50
258 282 130 160 152 143 169 222 220 168 140 289 251 205 209 206 194 201 161 105 136 249 304 33 187 257 313 314 195 167 105 83 52 44 54 28 24 45 61 32 359 14 24 33 38 36 41 47 50 52 57 64 69 72 76 79 80 81 81 81 81 81 81 81 81 81 81 81 81 81 80 77 76 73 69 69 70 69 69 67 64 62 59 57 56 54
200 42 61 147 150 158 190 232 218 163 136 232 245 150 154 167 177 183 158 153 215 250 323 358 122 229 287 286 197 148 122 117 153 152 172 202 199 183 184 312 331 7 10 32 41 35 44 54 56 57 62 70 75 78 81 81 81 81 81 81 81 81 81 81 81 81 80 82 84 85 84 82 80 80 78 76 75 74 72 70 66 64 61 58 57 55
155 166 188 165 157 190 210 220 189 161 152 233 192 123 128 147 154 137 124 139 316 356 311 306 67 232 265 276 288 149 154 181 198 194 193 198 206 201 203 227 274 1 1 38 52 40 46 61 69 72 75 79 82 83 83 83 83 83 83 83 82 80 81 81 81 81 81 82 84 85 86 85 83 82 81 78 76 73 71 69 66 64 62 59 57 55
125 221 203 154 159 208 211 221 185 170 183 195 137 103 82 85 86 84 104 109 48 37 252 248 196 203 269 281 271 196 216 212 193 191 195 201 212 214 210 212 211 44 28 36 55 58 61 75 84 86 87 86 87 88 88 88 87 86 85 83 81 80 80 80 79 80 80 80 81 82 83 84 83 81 79 76 72 70 68 66 64 62 60 59 57 55
329 314 179 144 177 192 155 93 187 175 157 140 115 79 62 51 49 51 69 87 70 271 246 238 214 193 269 277 229 191 213 186 160 166 195 207 217 219 220 217 207 196 71 30 52 73 83 91 96 97 94 92 92 93 93 92 90 88 86 84 83 82 81 80 79 79 79 79 79 79 80 80 79 76 74 71 68 65 64 63 61 60 58 56 54 52
342 356 259 234 163 121 98 62 19 10 95 115 103 86 87 19 23 32 4 50 129 252 257 263 251 177 219 263 248 212 210 175 164 174 183 192 204 205 210 214 210 213 213 31 52 92 100 101 103 102 99 98 98 97 96 95 93 91 90 89 88 86 84 83 82 81 81 79 79 79 78 77 76 73 70 68 66 63 62 61 59 57 55 52 50 47
296 231 256 304 173 134 110 78 35 4 27 87 101 98 99 348 0 357 312 195 215 245 260 278 190 185 229 249 237 216 215 217 219 206 186 186 190 192 198 202 203 215 210 183 186 154 120 114 111 106 105 104 102 100 100 100 98 96 95 93 92 91 89 88 86 85 84 82 81 80 79 78 76 73 71 69 67 64 62 60 57 54 51 48 44 41
281 286 285 147 241 177 150 146 155 205 158 143 144 130 126 124 126 254 265 258 258 250 230 243 177 206 264 261 224 224 246 236 226 236 220 196 186 185 188 186 191 213 216 205 205 203 169 143 128 118 114 111 108 106 106 105 102 100 99 96 95 96 95 93 91 89 87 86 85 83 81 79 76 74 72 70 68 65 61 58 55 52 48 44 40 35
202 288 211 173 227 186 174 181 160 145 146 176 163 131 140 154 169 222 221 202 243 268 269 265 185 185 210 236 233 242 278 286 250 239 218 196 184 174 165 169 189 211 216 214 210 208 191 161 143 132 125 119 116 114 112 109 107 105 104 102 101 101 100 96 94 92 90 89 87 84 81 78 75 74 72 70 67 63 59 55 51 48 43 39 34 29
163 264 255 241 267 166 178 200 118 112 122 230 127 108 153 183 155 171 197 172 180 289 288 235 222 216 188 200 273 276 311 332 337 217 180 178 176 160 165 186 198 211 213 207 206 209 201 179 161 147 136 129 124 120 117 115 113 112 110 107 105 103 102 99 96 93 91 90 87 83 80 77 75 72 70 68 63 58 54 49 44 40 35 31 26 22
130 272 282 340 360 130 184 212 112 121 186 164 124 171 218 184 120 112 257 62 82 263 270 195 232 283 334 261 296 11 327 324 358 187 176 176 173 170 190 203 203 211 209 201 201 203 198 187 174 160 146 138 133 127 123 120 117 115 112 110 107 105 102 99 95 92 89 86 83 79 76 72 69 66 63 60 55 49 44 39 35 29 25 20 16 12
149 260 286 96 122 313 273 146 72 51 131 123 176 210 197 119 92 98 233 355 42 244 272 224 220 249 188 236 308 61 257 258 232 209 188 183 185 190 206 209 209 212 205 200 203 203 200 190 179 168 155 144 138 132 128 125 122 118 114 111 108 105 102 97 93 89 84 80 76 73 70 66 61 58 55 51 46 39 32 29 25 20 16 13 8 5
140 221 294 93 155 305 5 94 70 10 79 125 190 189 109 135 155 101 164 230 253 246 283 295 245 233 200 202 206 201 212 213 207 203 197 198 196 199 210 211 212 212 205 205 203 204 203 194 183 171 161 151 144 137 133 130 126 123 121 116 111 105 100 96 91 87 82 75 71 67 64 61 58 54 49 44 36 27 23 20 17 14 11 8 4 0
123 169 272 313 202 256 27 97 172 231 39 74 113 112 74 159 170 153 153 170 203 230 280 298 294 250 229 198 179 196 200 187 184 193 201 203 199 203 208 203 206 208 205 202 196 200 201 194 186 173 165 159 152 146 140 136 133 129 125 119 111 104 99 95 90 86 80 74 70 67 65 62 58 51 42 35 25 18 17 15 10 7 5 2 359 356
113 171 230 301 321 184 178 206 191 187 173 132 144 172 196 123 128 201 213 125 142 174 217 277 281 263 253 196 183 197 192 179 183 189 194 200 202 207 209 201 202 205 204 199 191 195 198 194 188 178 170 165 158 155 151 145 141 135 129 122 114 108 106 104 101 98 93 90 89 84 78 69 59 48 32 19 12 7 6 3 359 357 355 353 350 350
163 164 173 187 208 194 227 247 198 184 180 165 176 187 184 166 133 177 251 198 126 172 184 209 268 269 252 201 201 204 185 185 187 182 183 196 202 206 208 203 203 203 202 196 187 190 193 193 190 182 176 175 171 167 164 159 153 146 138 131 127 125 125 125 124 125 123 118 113 101 82 62 45 32 12 356 349 347 347 347 346 344 343 343 343 344
140 117 140 195 210 216 247 273 164 182 163 144 196 196 169 161 142 163 222 224 142 203 152 127 268 276 269 228 243 233 199 188 182 174 182 197 201 202 203 203 207 207 196 182 184 190 190 191 190 185 184 184 181 176 172 170 163 155 150 145 144 144 142 142 143 140 139 131 109 91 69 38 15 350 334 328 327 330 332 335 337 337 337 339 340 340
124 120 148 256 298 303 313 351 75 82 92 158 239 180 150 181 163 176 207 164 163 212 155 117 254 262 294 321 301 233 180 164 176 187 192 199 200 199 201 205 208 202 184 179 189 190 189 191 192 191 193 192 187 184 179 175 170 165 165 164 162 160 157 159 160 153 149 142 98 48 336 318 313 305 306 312 318 323 327 331 334 336 337 338 338 339
187 162 142 166 306 324 328 331 338 347 189 209 227 179 174 147 97 84 95 97 234 214 152 179 246 245 283 339 34 80 131 156 194 207 203 203 201 200 208 209 199 181 180 188 189 186 187 193 195 197 199 196 193 191 185 180 180 180 180 180 178 177 177 182 187 187 190 196 240 280 282 289 296 299 302 309 316 320 325 329 331 333 335 334 335 335
180 175 161 180 215 233 232 212 215 228 201 202 200 192 198 169 154 163 138 175 235 200 142 202 242 248 313 17 85 104 139 178 214 219 222 227 210 208 213 204 186 182 192 195 189 186 188 192 197 200 201 200 197 196 191 188 189 190 192 193 193 194 199 207 216 222 230 234 245 263 275 284 292 298 303 309 315 319 323 326 328 330 331 331 331 331
127 192 203 206 225 228 215 211 195 139 147 196 208 195 197 196 186 175 157 199 210 166 184 225 220 205 258 191 160 189 190 204 216 201 209 229 220 215 214 196 192 201 203 198 188 181 183 193 199 200 201 201 201 199 196 195 195 195 199 203 205 210 216 221 227 230 234 239 245 258 271 282 293 301 308 313 317 320 322 324 326 327 327 328 329 329
102 239 226 217 241 240 174 188 201 156 176 202 203 207 211 202 187 191 210 208 152 157 238 231 151 174 238 204 187 206 203 213 223 206 206 220 212 205 199 189 204 214 209 200 190 186 190 198 199 199 202 203 201 200 198 196 198 199 202 207 209 214 216 215 217 217 221 231 241 256 272 286 299 307 312 315 317 319 320 322 323 325 326 326 327 327
119 245 234 208 255 262 133 65 209 185 207 208 199 216 218 202 193 202 216 206 170 207 245 214 150 201 238 206 192 204 201 206 214 207 202 203 179 173 179 191 211 217 205 198 202 201 199 197 195 200 205 204 200 199 197 195 196 198 200 204 203 203 202 197 195 195 199 216 238 262 281 296 306 309 312 313 315 317 319 321 323 324 325 326 326 327
133 248 237 198 257 263 243 191 211 194 214 226 219 229 225 210 205 209 216 211 199 233 269 117 169 226 236 187 192 210 205 202 209 195 186 203 192 182 191 214 231 235 219 209 212 209 200 196 199 202 203 201 199 198 196 196 196 196 197 197 194 192 190 186 183 184 193 214 243 271 292 303 308 309 311 313 315 317 318 320 321 322 323 324 325 326
188 234 196 158 242 259 220 166 200 197 206 220 239 242 224 194 213 222 220 202 173 254 266 225 230 251 233 160 185 223 155 149 221 229 210 211 209 201 217 235 248 251 242 231 222 207 198 198 202 204 203 201 200 199 199 198 195 193 192 190 189 188 184 181 183 189 202 230 261 285 301 306 308 310 312 313 314 315 316 317 319 320 322 323 324 325
198 214 68 125 225 245 197 173 171 104 62 257 251 244 215 175 207 216 197 188 186 209 230 234 244 254 230 144 171 221 186 194 228 231 218 214 209 208 224 233 233 232 229 228 217 199 196 200 202 205 204 202 201 201 200 198 192 190 189 187 187 185 182 184 191 203 225 256 281 297 306 307 308 309 310 312 313 314 316 317 319 321 322 323 324 325
174 173 133 178 221 246 178 160 138 90 27 262 249 235 213 206 218 182 142 209 207 190 199 224 238 243 186 132 169 221 218 218 230 230 222 224 216 213 225 228 225 224 222 218 209 198 200 205 206 207 206 205 206 205 203 198 193 190 189 187 186 185 186 192 201 224 251 271 289 302 306 306 307 308 309 312 313 314 316 317 319 321 322 323 324 324
179 182 188 192 207 246 53 116 123 156 224 244 256 218 209 217 219 206 207 220 208 190 209 239 251 202 132 163 204 223 223 216 223 227 220 214 210 214 226 227 222 221 220 213 205 203 208 209 209 208 207 206 205 201 197 194 191 189 186 186 188 189 193 204 216 237 259 278 294 303 305 303 304 305 307 310 311 313 315 316 319 321 321 321 322 323
187 194 199 169 155 147 94 120 174 215 229 262 358 6 237 214 204 209 234 242 215 208 229 246 254 231 202 218 223 220 218 213 221 232 223 209 204 202 211 221 218 214 214 209 206 211 210 205 203 202 200 198 194 188 185 185 186 186 185 188 193 196 202 216 232 250 269 286 296 299 299 299 300 302 305 308 310 312 314 316 319 321 321 321 322 323
183 184 167 111 138 122 127 182 208 244 280 346 352 353 41 70 99 167 265 268 228 212 221 230 239 242 238 239 236 137 174 224 254 247 225 215 212 199 198 210 209 203 204 203 203 206 205 204 203 201 196 190 186 184 183 184 186 187 188 192 198 205 213 225 243 260 274 287 293 293 293 295 297 301 305 307 309 311 314 317 320 321 321 321 321 322
182 166 153 192 191 143 170 212 244 328 305 233 272 285 163 139 144 156 228 259 236 210 203 202 225 242 243 236 122 92 96 28 330 279 228 211 210 203 206 212 203 201 208 208 208 209 210 209 205 200 194 189 188 188 188 188 190 192 194 198 204 212 222 233 247 262 274 283 288 288 290 293 297 301 304 306 308 311 314 317 319 321 321 320 320 321
215 189 192 210 205 130 151 227 271 293 257 224 190 215 170 144 156 148 168 266 263 212 188 184 210 236 238 173 119 113 83 47 298 274 236 211 207 200 213 227 216 210 212 210 209 211 211 209 204 200 196 192 191 193 194 194 196 196 200 205 210 217 225 236 249 261 273 280 283 284 287 292 296 300 302 305 308 310 313 316 318 318 319 318 317 318
18 335 212 206 201 134 164 219 213 222 255 243 183 202 159 145 137 102 62 284 262 207 184 182 204 226 218 169 154 133 109 159 256 265 238 210 205 193 202 222 224 221 223 218 214 214 211 205 201 197 195 195 197 198 198 199 200 202 205 208 213 220 229 240 253 264 272 276 278 280 285 290 294 298 301 305 307 308 311 314 315 315 315 314 314 315
48 360 31 201 211 188 194 224 228 233 258 226 174 173 208 169 115 89 336 273 247 205 182 173 197 216 193 163 155 145 159 198 232 249 221 196 197 195 201 213 220 221 225 224 221 219 211 201 195 194 197 202 205 203 201 201 203 205 208 211 216 225 235 246 256 264 269 272 274 278 284 288 292 295 299 302 304 305 309 312 312 312 312 312 312 313
104 321 206 226 237 227 224 239 272 260 240 199 177 169 162 117 82 114 233 243 204 196 190 175 196 206 171 156 162 180 207 214 214 203 145 152 170 198 210 218 223 224 227 226 220 211 205 202 201 203 206 208 207 204 202 202 203 205 208 213 220 229 239 248 255 261 265 268 272 277 283 286 289 293 297 299 301 303 305 309 309 309 310 311 312 313
162 152 278 231 225 238 243 252 284 274 228 151 153 175 154 128 137 215 224 208 168 181 192 196 203 193 167 173 186 201 221 229 225 215 169 172 192 226 217 206 202 208 215 215 211 206 202 201 203 206 209 208 206 204 203 203 203 205 210 217 225 233 241 247 253 259 262 266 272 276 280 283 286 291 295 296 298 300 303 307 307 307 309 310 311 313
168 150 217 226 184 141 241 228 242 270 209 133 127 118 219 195 208 206 180 170 182 176 177 197 209 190 177 192 206 216 232 250 252 250 243 227 239 258 239 200 193 200 200 198 205 208 204 202 203 205 207 207 206 204 204 203 204 206 213 221 228 235 242 248 253 259 262 267 272 275 278 282 285 288 291 293 295 297 301 306 306 305 308 311 312 312
188 162 196 230 187 146 192 221 218 214 173 155 145 161 212 207 187 155 148 173 207 190 175 191 210 200 189 195 207 216 232 254 253 248 250 248 243 244 242 225 213 212 210 209 212 212 206 205 206 205 206 207 205 204 205 205 206 209 216 224 230 236 243 248 253 259 264 269 273 276 278 281 284 287 289 292 295 298 301 305 306 306 309 311 311 310
226 186 174 200 205 180 188 213 220 162 175 186 179 188 208 207 180 156 158 167 193 200 184 187 205 203 195 194 196 199 213 231 238 237 234 239 243 237 235 232 225 222 222 221 220 217 212 210 208 204 204 206 205 205 206 207 209 213 219 224 230 236 242 247 254 260 266 269 272 276 278 280 282 286 288 290 294 298 302 306 306 307 309 310 308 306
245 158 134 150 247 254 235 190 180 188 201 206 215 221 215 210 188 170 173 184 194 190 184 192 201 196 189 186 186 197 216 222 230 239 234 234 243 240 234 234 235 232 229 225 224 221 215 211 208 205 204 205 206 206 208 209 211 217 222 226 230 236 241 247 254 260 264 267 270 273 275 278 280 282 285 288 293 297 301 305 305 306 309 309 306 304
275 139 147 203 230 251 258 191 166 186 200 201 216 234 245 245 225 193 195 217 210 189 194 206 201 181 177 177 182 202 220 217 219 239 243 235 240 241 233 232 236 236 231 228 227 223 212 206 206 206 206 208 209 208 208 209 211 217 223 227 230 235 241 247 254 259 261 263 267 269 273 278 282 284 285 288 293 297 300 302 304 304 306 306 304 302
256 149 170 225 217 199 228 228 217 281 270 226 221 232 242 246 236 212 217 234 223 192 197 205 182 161 170 182 189 203 222 221 213 227 241 239 238 238 231 232 237 240 238 233 228 221 211 208 209 209 210 212 211 208 206 208 211 216 222 227 231 236 242 247 252 256 258 260 264 267 271 276 281 285 288 291 293 297 301 302 303 302 303 305 303 298
151 159 173 202 210 211 235 221 173 352 309 264 240 236 238 240 232 223 230 240 232 209 208 215 207 187 185 191 187 191 222 235 222 217 229 239 240 234 232 234 237 238 238 234 227 220 215 214 214 213 214 215 212 207 206 208 212 216 222 229 234 238 242 246 250 254 257 258 261 265 270 274 278 284 289 292 295 299 301 303 306 304 303 306 308 300
155 200 184 158 205 236 231 198 175 180 250 241 229 230 236 233 219 224 236 234 227 221 210 214 231 228 218 216 199 184 214 239 231 214 222 235 238 235 236 237 236 236 236 231 225 221 218 219 218 216 215 215 211 207 208 211 214 218 223 229 234 239 242 244 248 252 254 256 260 264 268 272 276 282 288 292 298 302 302 302 304 301 298 302 306 297
185 203 190 175 210 225 217 204 195 200 234 240 221 222 232 220 196 216 235 230 228 227 207 199 222 237 240 235 217 201 212 237 230 213 216 235 239 239 240 240 236 234 231 223 217 215 216 217 217 215 213 213 211 208 209 212 215 219 224 230 235 240 242 244 247 250 252 255 258 262 267 272 277 283 287 291 297 303 306 306 304 299 298 303 307 300